| time (UTC) | temp F | wind direction | speed knots | gust knots | rain 1hr in | rain 24hr in | rain mn in | humidity % | barometer mb |
| 20260906212546 | 95 | 203 | 7.8 | 13.9 | 0.00 | 0.39 | 0.00 | 31 | 1009.1 |
| 20260906211816 | 95 | 155 | 7.0 | 14.8 | 0.00 | 0.39 | 0.00 | 31 | 1009.2 |
| 20260906211316 | 94 | 145 | 6.1 | 14.8 | 0.00 | 0.39 | 0.00 | 32 | 1009.3 |
| 20260906210816 | 95 | 108 | 6.1 | 13.9 | 0.00 | 0.39 | 0.00 | 31 | 1009.3 |
| 20260906210316 | 95 | 145 | 7.8 | 16.5 | 0.00 | 0.39 | 0.00 | 32 | 1009.6 |
| 20260906205814 | 95 | 205 | 7.8 | 16.5 | 0.00 | 0.39 | 0.00 | 32 | 1009.7 |
| 20260906205312 | 95 | 109 | 6.1 | 12.2 | 0.00 | 0.39 | 0.00 | 32 | 1009.7 |
| 20260906204809 | 95 | 172 | 7.0 | 15.6 | 0.00 | 0.39 | 0.00 | 32 | 1009.7 |
| 20260906204541 | 96 | 98 | 7.8 | 15.6 | 0.00 | 0.39 | 0.00 | 32 | 1009.7 |
| 20260906203811 | 95 | 162 | 7.0 | 15.6 | 0.00 | 0.39 | 0.00 | 33 | 1009.8 |
| 20260906203309 | 95 | 131 | 6.1 | 15.6 | 0.00 | 0.39 | 0.00 | 33 | 1009.8 |
| 20260906202808 | 95 | 95 | 7.0 | 13.0 | 0.00 | 0.39 | 0.00 | 32 | 1009.8 |
| 20260906202307 | 95 | 142 | 7.8 | 13.9 | 0.00 | 0.39 | 0.00 | 32 | 1009.9 |
| 20260906201806 | 95 | 172 | 7.8 | 13.9 | 0.00 | 0.39 | 0.00 | 32 | 1009.8 |
| 20260906201305 | 95 | 129 | 7.0 | 13.9 | 0.00 | 0.39 | 0.00 | 32 | 1009.9 |
| 20260906200803 | 95 | 177 | 7.8 | 13.9 | 0.00 | 0.39 | 0.00 | 33 | 1010.0 |
| 20260906200302 | 95 | 174 | 7.0 | 13.9 | 0.00 | 0.39 | 0.00 | 32 | 1010.0 |
| 20260906195803 | 94 | 130 | 7.0 | 13.0 | 0.00 | 0.39 | 0.00 | 34 | 1009.9 |
| 20260906195300 | 93 | 0 | 7.8 | 15.6 | 0.00 | 0.39 | 0.00 | 34 | 1010.0 |
| 20260906194759 | 94 | 118 | 7.8 | 15.6 | 0.00 | 0.39 | 0.00 | 33 | 1010.1 |
| 20260906194530 | 94 | 129 | 7.8 | 17.4 | 0.00 | 0.39 | 0.00 | 33 | 1010.2 |
| 20260906193801 | 95 | 129 | 7.0 | 17.4 | 0.00 | 0.39 | 0.00 | 34 | 1010.3 |
| 20260906193531 | 95 | 169 | 6.1 | 11.3 | 0.00 | 0.39 | 0.00 | 33 | 1010.5 |
| 20260906192759 | 94 | 167 | 6.1 | 12.2 | 0.00 | 0.39 | 0.00 | 34 | 1010.5 |
| 20260906192300 | 94 | 134 | 6.1 | 13.0 | 0.00 | 0.39 | 0.00 | 34 | 1010.5 |
| 20260906191800 | 94 | 189 | 7.0 | 16.5 | 0.00 | 0.39 | 0.00 | 35 | 1010.5 |
| 20260906191257 | 94 | 114 | 7.0 | 16.5 | 0.00 | 0.39 | 0.00 | 35 | 1010.6 |
| 20260906190753 | 94 | 204 | 7.0 | 13.0 | 0.00 | 0.39 | 0.00 | 35 | 1010.6 |
| 20260906190522 | 94 | 169 | 7.0 | 13.0 | 0.00 | 0.39 | 0.00 | 35 | 1010.8 |
| 20260906190023 | 94 | 184 | 6.1 | 13.0 | 0.00 | 0.39 | 0.00 | 36 | 1010.8 |
| 20260906185247 | 94 | 131 | 7.0 | 13.0 | 0.00 | 0.39 | 0.00 | 36 | 1011.0 |
| 20260906184745 | 94 | 150 | 7.0 | 13.0 | 0.00 | 0.39 | 0.00 | 36 | 1010.9 |
| 20260906184516 | 94 | 179 | 6.1 | 11.3 | 0.00 | 0.39 | 0.00 | 36 | 1011.0 |
| 20260906184015 | 93 | 144 | 7.0 | 13.0 | 0.00 | 0.39 | 0.00 | 37 | 1011.1 |
| 20260906183237 | 93 | 165 | 7.0 | 13.0 | 0.00 | 0.39 | 0.00 | 37 | 1011.3 |
| 20260906182735 | 93 | 170 | 7.0 | 11.3 | 0.00 | 0.39 | 0.00 | 38 | 1011.2 |
| 20260906182235 | 93 | 165 | 7.8 | 15.6 | 0.00 | 0.39 | 0.00 | 38 | 1011.4 |
| 20260906181731 | 93 | 145 | 7.8 | 15.6 | 0.00 | 0.39 | 0.00 | 38 | 1011.4 |
| 20260906181232 | 92 | 165 | 7.0 | 14.8 | 0.00 | 0.39 | 0.00 | 37 | 1011.5 |
| 20260906181002 | 92 | 159 | 7.8 | 16.5 | 0.00 | 0.39 | 0.00 | 38 | 1011.5 |
| 20260906180232 | 92 | 138 | 7.0 | 16.5 | 0.00 | 0.39 | 0.00 | 38 | 1011.5 |
| 20260906175731 | 92 | 172 | 7.0 | 14.8 | 0.00 | 0.39 | 0.00 | 40 | 1011.7 |
| 20260906175503 | 92 | 160 | 8.7 | 14.8 | 0.00 | 0.39 | 0.00 | 39 | 1011.9 |
| 20260906174732 | 92 | 156 | 7.8 | 15.6 | 0.00 | 0.39 | 0.00 | 39 | 1011.9 |
| 20260906174229 | 92 | 176 | 7.0 | 15.6 | 0.00 | 0.39 | 0.00 | 38 | 1011.9 |
| 20260906173727 | 92 | 183 | 7.0 | 12.2 | 0.00 | 0.39 | 0.00 | 39 | 1011.9 |
| 20260906173227 | 92 | 146 | 7.0 | 13.9 | 0.00 | 0.39 | 0.00 | 39 | 1011.9 |
| 20260906172714 | 92 | 110 | 7.0 | 13.9 | 0.00 | 0.39 | 0.00 | 40 | 1012.1 |
| 20260906172213 | 92 | 165 | 7.0 | 13.0 | 0.00 | 0.39 | 0.00 | 42 | 1011.9 |
| 20260906171709 | 91 | 158 | 7.0 | 15.6 | 0.00 | 0.39 | 0.00 | 42 | 1012.1 |
| 20260906171207 | 91 | 167 | 7.0 | 15.6 | 0.00 | 0.39 | 0.00 | 42 | 1012.1 |
| 20260906170708 | 91 | 167 | 7.8 | 14.8 | 0.00 | 0.39 | 0.00 | 43 | 1012.1 |
| 20260906170208 | 90 | 187 | 7.8 | 14.8 | 0.00 | 0.39 | 0.00 | 43 | 1012.2 |
| 20260906165708 | 90 | 179 | 6.1 | 14.8 | 0.00 | 0.39 | 0.00 | 44 | 1012.2 |
| 20260906165211 | 89 | 162 | 7.0 | 16.5 | 0.00 | 0.39 | 0.00 | 45 | 1012.3 |
| 20260906165207 | 90 | 172 | 7.0 | 16.5 | 0.00 | 0.39 | 0.00 | 46 | 1012.2 |
| 20260906164203 | 89 | 168 | 7.0 | 12.2 | 0.00 | 0.39 | 0.00 | 46 | 1012.4 |
| 20260906163704 | 89 | 134 | 6.1 | 11.3 | 0.00 | 0.39 | 0.00 | 48 | 1012.4 |
| 20260906163201 | 89 | 172 | 5.2 | 9.6 | 0.00 | 0.39 | 0.00 | 50 | 1012.3 |
| 20260906162702 | 88 | 191 | 6.1 | 10.4 | 0.00 | 0.39 | 0.00 | 51 | 1012.2 |
| 20260906162200 | 88 | 188 | 6.1 | 10.4 | 0.00 | 0.39 | 0.00 | 52 | 1012.3 |
| 20260906161657 | 87 | 229 | 5.2 | 9.6 | 0.00 | 0.39 | 0.00 | 52 | 1012.4 |
| 20260906161157 | 87 | 188 | 5.2 | 8.7 | 0.00 | 0.39 | 0.00 | 53 | 1012.5 |
| 20260906160656 | 86 | 242 | 6.1 | 10.4 | 0.00 | 0.39 | 0.00 | 55 | 1012.4 |
| 20260906160154 | 85 | 199 | 6.1 | 10.4 | 0.00 | 0.39 | 0.00 | 56 | 1012.5 |
| 20260906155653 | 84 | 207 | 5.2 | 10.4 | 0.00 | 0.39 | 0.00 | 58 | 1012.4 |
| 20260906155153 | 84 | 105 | 5.2 | 9.6 | 0.00 | 0.39 | 0.00 | 58 | 1012.5 |
| 20260906154651 | 83 | 127 | 5.2 | 8.7 | 0.00 | 0.39 | 0.00 | 59 | 1012.6 |
| 20260906154415 | 83 | 190 | 5.2 | 8.7 | 0.00 | 0.39 | 0.00 | 59 | 1012.5 |
| 20260906153639 | 83 | 205 | 5.2 | 8.7 | 0.00 | 0.39 | 0.00 | 59 | 1012.4 |
| 20260906153136 | 83 | 232 | 6.1 | 10.4 | 0.00 | 0.39 | 0.00 | 58 | 1012.4 |
| 20260906152634 | 84 | 240 | 6.1 | 10.4 | 0.00 | 0.39 | 0.00 | 58 | 1012.4 |
| 20260906152403 | 83 | 236 | 6.1 | 10.4 | 0.00 | 0.39 | 0.00 | 59 | 1012.4 |
| 20260906151627 | 83 | 195 | 6.1 | 10.4 | 0.00 | 0.39 | 0.00 | 60 | 1012.4 |
| 20260906151127 | 83 | 196 | 6.1 | 11.3 | 0.00 | 0.39 | 0.00 | 60 | 1012.4 |
| 20260906150623 | 82 | 229 | 6.1 | 11.3 | 0.00 | 0.39 | 0.00 | 61 | 1012.3 |
| 20260906150122 | 81 | 193 | 5.2 | 9.6 | 0.00 | 0.39 | 0.00 | 62 | 1012.2 |
| 20260906145620 | 81 | 125 | 5.2 | 10.4 | 0.00 | 0.39 | 0.00 | 63 | 1012.4 |
| 20260906145118 | 80 | 117 | 5.2 | 10.4 | 0.00 | 0.39 | 0.00 | 63 | 1012.4 |
| 20260906144848 | 80 | 105 | 4.3 | 7.0 | 0.00 | 0.39 | 0.00 | 63 | 1012.4 |
| 20260906144111 | 80 | 96 | 4.3 | 7.0 | 0.00 | 0.39 | 0.00 | 63 | 1012.4 |
| 20260906143611 | 79 | 102 | 3.5 | 7.0 | 0.00 | 0.39 | 0.00 | 64 | 1012.4 |
| 20260906143108 | 78 | 191 | 4.3 | 9.6 | 0.00 | 0.39 | 0.00 | 64 | 1012.4 |
| 20260906142837 | 78 | 218 | 5.2 | 9.6 | 0.00 | 0.39 | 0.00 | 64 | 1012.4 |
| 20260906142104 | 77 | 192 | 4.3 | 8.7 | 0.00 | 0.39 | 0.00 | 65 | 1012.4 |
| 20260906141604 | 76 | 176 | 4.3 | 7.0 | 0.00 | 0.39 | 0.00 | 66 | 1012.4 |
| 20260906141600 | 77 | 179 | 4.3 | 7.8 | 0.00 | 0.39 | 0.00 | 65 | 1012.3 |
| 20260906140559 | 76 | 0 | 4.3 | 10.4 | 0.00 | 0.39 | 0.00 | 67 | 1012.3 |
| 20260906140100 | 75 | 0 | 5.2 | 10.4 | 0.00 | 0.39 | 0.00 | 67 | 1012.3 |
| 20260906135829 | 75 | 0 | 4.3 | 7.8 | 0.00 | 0.39 | 0.00 | 68 | 1012.3 |
| 20260906135057 | 74 | 0 | 4.3 | 7.8 | 0.00 | 0.39 | 0.00 | 68 | 1012.2 |
| 20260906134535 | 74 | 0 | 4.3 | 7.0 | 0.00 | 0.39 | 0.00 | 69 | 1012.2 |
| 20260906134033 | 73 | 0 | 3.5 | 6.1 | 0.00 | 0.39 | 0.00 | 69 | 1012.2 |
| 20260906133532 | 73 | 0 | 3.5 | 8.7 | 0.00 | 0.39 | 0.00 | 69 | 1012.2 |
| 20260906133032 | 72 | 0 | 4.3 | 8.7 | 0.00 | 0.39 | 0.00 | 70 | 1012.1 |
| 20260906132529 | 72 | 0 | 4.3 | 7.8 | 0.00 | 0.39 | 0.00 | 69 | 1011.9 |
| 20260906132030 | 72 | 0 | 4.3 | 8.7 | 0.00 | 0.39 | 0.00 | 69 | 1011.9 |
| 20260906131529 | 72 | 0 | 3.5 | 8.7 | 0.00 | 0.39 | 0.00 | 70 | 1011.9 |
| 20260906131029 | 72 | 0 | 3.5 | 6.1 | 0.00 | 0.39 | 0.00 | 70 | 1011.8 |
| 20260906130529 | 72 | 0 | 3.5 | 8.7 | 0.00 | 0.39 | 0.00 | 69 | 1011.6 |
| 20260906130031 | 72 | 0 | 4.3 | 8.7 | 0.00 | 0.39 | 0.00 | 69 | 1011.6 |
| 20260906125527 | 72 | 0 | 4.3 | 8.7 | 0.00 | 0.39 | 0.00 | 69 | 1011.6 |
| 20260906125300 | 72 | 0 | 4.3 | 7.0 | 0.00 | 0.39 | 0.00 | 69 | 1011.5 |
| 20260906124525 | 72 | 0 | 5.2 | 7.8 | 0.00 | 0.39 | 0.00 | 69 | 1011.5 |
| 20260906124024 | 72 | 0 | 5.2 | 9.6 | 0.00 | 0.39 | 0.00 | 68 | 1011.6 |
| 20260906123520 | 72 | 0 | 5.2 | 9.6 | 0.00 | 0.39 | 0.00 | 67 | 1011.5 |
| 20260906123250 | 73 | 0 | 4.3 | 7.0 | 0.00 | 0.39 | 0.00 | 67 | 1011.4 |
| 20260906122513 | 73 | 0 | 3.5 | 7.8 | 0.00 | 0.39 | 0.00 | 67 | 1011.4 |
| 20260906122011 | 73 | 0 | 5.2 | 9.6 | 0.00 | 0.39 | 0.00 | 66 | 1011.4 |
| 20260906121510 | 73 | 0 | 6.1 | 10.4 | 0.00 | 0.39 | 0.00 | 66 | 1011.4 |
| 20260906121010 | 73 | 0 | 5.2 | 10.4 | 0.00 | 0.39 | 0.00 | 65 | 1011.3 |
| 20260906120510 | 74 | 0 | 5.2 | 9.6 | 0.00 | 0.39 | 0.00 | 65 | 1011.3 |
| 20260906115957 | 74 | 0 | 5.2 | 9.6 | 0.00 | 0.39 | 0.00 | 65 | 1011.3 |
| 20260906115449 | 74 | 0 | 4.3 | 9.6 | 0.00 | 0.39 | 0.00 | 65 | 1011.1 |
| 20260906114949 | 74 | 0 | 3.5 | 7.0 | 0.00 | 0.39 | 0.00 | 65 | 1011.2 |
| 20260906114448 | 74 | 0 | 2.6 | 6.1 | 0.00 | 0.39 | 0.00 | 65 | 1011.1 |
| 20260906114216 | 74 | 0 | 3.5 | 6.1 | 0.00 | 0.39 | 0.00 | 65 | 1011.0 |
| 20260906113436 | 74 | 0 | 4.3 | 7.0 | 0.00 | 0.39 | 0.00 | 64 | 1011.1 |
| 20260906113202 | 75 | 0 | 3.5 | 7.0 | 0.00 | 0.39 | 0.00 | 64 | 1010.9 |
| 20260906112430 | 75 | 0 | 2.6 | 7.0 | 0.00 | 0.39 | 0.00 | 64 | 1010.9 |
| 20260906111929 | 75 | 0 | 4.3 | 8.7 | 0.00 | 0.39 | 0.00 | 64 | 1010.7 |
| 20260906111429 | 75 | 0 | 5.2 | 8.7 | 0.00 | 0.39 | 0.00 | 63 | 1010.7 |
| 20260906110929 | 75 | 0 | 4.3 | 8.7 | 0.00 | 0.39 | 0.00 | 63 | 1010.7 |
| 20260906110430 | 75 | 0 | 4.3 | 8.7 | 0.00 | 0.39 | 0.00 | 63 | 1010.8 |
| 20260906105928 | 76 | 0 | 3.5 | 7.8 | 0.00 | 0.39 | 0.00 | 62 | 1010.9 |
| 20260906105429 | 76 | 0 | 2.6 | 5.2 | 0.00 | 0.39 | 0.00 | 62 | 1010.8 |
| 20260906104930 | 76 | 0 | 2.6 | 6.1 | 0.00 | 0.39 | 0.00 | 62 | 1010.9 |
| 20260906104427 | 76 | 0 | 2.6 | 6.1 | 0.00 | 0.39 | 0.00 | 62 | 1010.9 |
| 20260906103927 | 76 | 0 | 2.6 | 6.1 | 0.00 | 0.39 | 0.00 | 62 | 1010.9 |
| 20260906103428 | 76 | 0 | 2.6 | 6.1 | 0.00 | 0.39 | 0.00 | 62 | 1010.9 |
| 20260906102927 | 76 | 0 | 2.6 | 5.2 | 0.00 | 0.39 | 0.00 | 62 | 1010.9 |
| 20260906102426 | 76 | 0 | 2.6 | 5.2 | 0.00 | 0.39 | 0.00 | 62 | 1010.7 |
| 20260906101922 | 76 | 0 | 1.7 | 3.5 | 0.00 | 0.39 | 0.00 | 62 | 1010.6 |
| 20260906101424 | 76 | 0 | 2.6 | 7.0 | 0.00 | 0.39 | 0.00 | 62 | 1010.7 |
| 20260906100919 | 76 | 0 | 3.5 | 7.0 | 0.00 | 0.39 | 0.00 | 61 | 1010.7 |
| 20260906100418 | 76 | 0 | 3.5 | 7.0 | 0.00 | 0.39 | 0.00 | 61 | 1010.6 |
| 20260906095914 | 76 | 0 | 2.6 | 7.0 | 0.00 | 0.39 | 0.00 | 61 | 1010.6 |
| 20260906095411 | 76 | 0 | 2.6 | 4.3 | 0.00 | 0.39 | 0.00 | 61 | 1010.6 |
| 20260906094910 | 76 | 0 | 2.6 | 6.1 | 0.00 | 0.39 | 0.00 | 61 | 1010.6 |
| 20260906094406 | 76 | 0 | 2.6 | 6.1 | 0.00 | 0.39 | 0.00 | 61 | 1010.7 |
| 20260906093905 | 76 | 0 | 2.6 | 6.1 | 0.00 | 0.39 | 0.00 | 62 | 1010.6 |
| 20260906093403 | 76 | 0 | 2.6 | 6.1 | 0.00 | 0.39 | 0.00 | 62 | 1010.6 |
| 20260906092901 | 76 | 0 | 3.5 | 6.1 | 0.00 | 0.39 | 0.00 | 62 | 1010.7 |
| 20260906092355 | 76 | 0 | 3.5 | 6.1 | 0.00 | 0.39 | 0.00 | 62 | 1010.6 |
| 20260906091855 | 76 | 0 | 3.5 | 6.1 | 0.00 | 0.39 | 0.00 | 63 | 1010.7 |
| 20260906091354 | 76 | 0 | 3.5 | 6.1 | 0.00 | 0.39 | 0.00 | 65 | 1010.7 |
| 20260906091121 | 76 | 0 | 2.6 | 4.3 | 0.00 | 0.39 | 0.00 | 64 | 1010.8 |
| 20260906090346 | 76 | 0 | 2.6 | 5.2 | 0.00 | 0.39 | 0.00 | 63 | 1010.7 |
| 20260906085843 | 76 | 0 | 2.6 | 5.2 | 0.00 | 0.39 | 0.00 | 64 | 1010.7 |
| 20260906085340 | 76 | 0 | 2.6 | 5.2 | 0.00 | 0.39 | 0.00 | 64 | 1010.6 |
| 20260906085334 | 76 | 0 | 2.6 | 4.3 | 0.00 | 0.39 | 0.00 | 64 | 1010.6 |
| 20260906084601 | 76 | 0 | 2.6 | 4.3 | 0.00 | 0.39 | 0.00 | 64 | 1010.5 |
| 20260906083832 | 76 | 0 | 1.7 | 4.3 | 0.00 | 0.39 | 0.00 | 64 | 1010.4 |
| 20260906083331 | 76 | 0 | 0.9 | 3.5 | 0.00 | 0.39 | 0.00 | 66 | 1010.5 |
| 20260906083100 | 76 | 0 | 1.7 | 3.5 | 0.00 | 0.39 | 0.00 | 65 | 1010.6 |
| 20260906082328 | 76 | 0 | 1.7 | 2.6 | 0.00 | 0.39 | 0.00 | 66 | 1010.6 |
| 20260906082057 | 76 | 0 | 1.7 | 2.6 | 0.00 | 0.39 | 0.00 | 66 | 1010.6 |
| 20260906081325 | 76 | 0 | 1.7 | 4.3 | 0.00 | 0.39 | 0.00 | 66 | 1010.6 |
| 20260906080825 | 76 | 0 | 2.6 | 4.3 | 0.00 | 0.39 | 0.00 | 66 | 1010.6 |
| 20260906080325 | 76 | 0 | 2.6 | 4.3 | 0.00 | 0.39 | 0.00 | 66 | 1010.6 |
| 20260906075825 | 76 | 0 | 2.6 | 5.2 | 0.00 | 0.39 | 0.00 | 66 | 1010.7 |
| 20260906075326 | 76 | 0 | 3.5 | 5.2 | 0.00 | 0.39 | 0.00 | 65 | 1010.9 |
| 20260906074823 | 76 | 0 | 3.5 | 5.2 | 0.00 | 0.39 | 0.00 | 64 | 1010.8 |
| 20260906074323 | 77 | 0 | 3.5 | 6.1 | 0.00 | 0.39 | 0.00 | 64 | 1010.8 |
| 20260906073821 | 77 | 0 | 3.5 | 6.1 | 0.00 | 0.39 | 0.00 | 64 | 1010.9 |
| 20260906073314 | 77 | 0 | 3.5 | 7.0 | 0.00 | 0.39 | 0.00 | 63 | 1010.9 |
| 20260906072809 | 77 | 0 | 4.3 | 7.0 | 0.00 | 0.39 | 0.00 | 63 | 1010.9 |
| 20260906072306 | 77 | 0 | 4.3 | 7.0 | 0.00 | 0.39 | 0.00 | 63 | 1010.9 |
| 20260906071756 | 77 | 0 | 5.2 | 9.6 | 0.00 | 0.39 | 0.00 | 63 | 1010.9 |
| 20260906071256 | 77 | 0 | 7.0 | 11.3 | 0.00 | 0.39 | 0.00 | 61 | 1010.8 |
| 20260906070756 | 77 | 0 | 7.0 | 12.2 | 0.00 | 0.39 | 0.00 | 61 | 1010.8 |
| 20260906070527 | 77 | 0 | 5.2 | 12.2 | 0.00 | 0.39 | 0.00 | 61 | 1010.7 |
| 20260906065753 | 78 | 0 | 3.5 | 10.4 | 0.00 | 0.39 | 0.00 | 61 | 1010.7 |
| 20260906065254 | 78 | 0 | 2.6 | 5.2 | 0.00 | 0.39 | 0.00 | 61 | 1010.5 |
| 20260906065022 | 78 | 0 | 3.5 | 7.0 | 0.00 | 0.39 | 0.00 | 62 | 1010.6 |
| 20260906064248 | 78 | 0 | 3.5 | 9.6 | 0.00 | 0.39 | 0.00 | 61 | 1010.7 |
| 20260906063746 | 78 | 0 | 2.6 | 9.6 | 0.00 | 0.39 | 0.00 | 62 | 1010.7 |
| 20260906063246 | 78 | 0 | 2.6 | 6.1 | 0.00 | 0.39 | 0.00 | 61 | 1010.7 |
| 20260906062746 | 78 | 0 | 3.5 | 7.8 | 0.00 | 0.39 | 0.00 | 61 | 1010.6 |
| 20260906062246 | 78 | 0 | 3.5 | 7.8 | 0.00 | 0.39 | 0.00 | 61 | 1010.6 |
| 20260906061740 | 79 | 0 | 3.5 | 7.0 | 0.00 | 0.39 | 0.00 | 61 | 1010.6 |
| 20260906061238 | 79 | 0 | 4.3 | 8.7 | 0.00 | 0.39 | 0.00 | 61 | 1010.6 |
| 20260906061001 | 79 | 0 | 5.2 | 11.3 | 0.00 | 0.39 | 0.00 | 60 | 1010.6 |
| 20260906060226 | 79 | 0 | 5.2 | 11.3 | 0.00 | 0.39 | 0.00 | 60 | 1010.5 |
| 20260906055727 | 79 | 0 | 5.2 | 9.6 | 0.00 | 0.39 | 0.00 | 61 | 1010.6 |
| 20260906055227 | 79 | 0 | 4.3 | 8.7 | 0.00 | 0.39 | 0.00 | 63 | 1010.5 |
| 20260906054730 | 78 | 0 | 4.3 | 8.7 | 0.00 | 0.39 | 0.00 | 63 | 1010.5 |
| 20260906054726 | 79 | 0 | 4.3 | 8.7 | 0.00 | 0.39 | 0.00 | 62 | 1010.6 |
| 20260906053726 | 79 | 0 | 3.5 | 8.7 | 0.00 | 0.39 | 0.00 | 64 | 1010.5 |
| 20260906053224 | 79 | 0 | 3.5 | 7.0 | 0.00 | 0.39 | 0.00 | 63 | 1010.5 |
| 20260906052722 | 79 | 0 | 4.3 | 10.4 | 0.00 | 0.39 | 0.00 | 63 | 1010.6 |
| 20260906052218 | 79 | 0 | 6.1 | 10.4 | 0.00 | 0.39 | 0.00 | 62 | 1010.5 |
| 20260906051717 | 79 | 0 | 6.1 | 10.4 | 0.00 | 0.39 | 0.00 | 62 | 1010.5 |
| 20260906051211 | 79 | 0 | 5.2 | 10.4 | 0.00 | 0.39 | 0.00 | 61 | 1010.5 |
| 20260906050709 | 79 | 0 | 5.2 | 10.4 | 0.00 | 0.39 | 0.00 | 62 | 1010.5 |
| 20260906050441 | 79 | 0 | 4.3 | 8.7 | 0.00 | 0.39 | 0.00 | 62 | 1010.6 |
| 20260906045939 | 79 | 0 | 4.3 | 7.0 | 0.00 | 0.39 | 0.39 | 62 | 1010.6 |
| 20260906045209 | 79 | 0 | 4.3 | 7.8 | 0.00 | 0.39 | 0.39 | 61 | 1010.6 |
| 20260906044709 | 79 | 0 | 3.5 | 7.8 | 0.00 | 0.39 | 0.39 | 62 | 1010.6 |
| 20260906044435 | 80 | 0 | 1.7 | 7.0 | 0.00 | 0.39 | 0.39 | 62 | 1010.7 |
| 20260906043936 | 80 | 0 | 3.5 | 8.7 | 0.00 | 0.39 | 0.39 | 62 | 1010.7 |
| 20260906043159 | 79 | 0 | 4.3 | 8.7 | 0.00 | 0.39 | 0.39 | 61 | 1010.7 |
| 20260906042654 | 79 | 0 | 3.5 | 7.8 | 0.00 | 0.39 | 0.39 | 61 | 1010.8 |
| 20260906042418 | 79 | 0 | 3.5 | 7.8 | 0.00 | 0.39 | 0.39 | 62 | 1010.8 |
| 20260906041649 | 79 | 0 | 3.5 | 7.0 | 0.00 | 0.39 | 0.39 | 62 | 1010.9 |
| 20260906041147 | 79 | 0 | 4.3 | 7.0 | 0.00 | 0.39 | 0.39 | 61 | 1010.9 |
| 20260906040645 | 79 | 0 | 5.2 | 7.8 | 0.00 | 0.39 | 0.39 | 62 | 1010.8 |
| 20260906040145 | 79 | 0 | 6.1 | 11.3 | 0.01 | 0.39 | 0.39 | 63 | 1010.9 |
| 20260906035644 | 79 | 0 | 8.7 | 14.8 | 0.02 | 0.39 | 0.39 | 63 | 1010.9 |
| 20260906035143 | 78 | 0 | 7.0 | 14.8 | 0.03 | 0.39 | 0.39 | 63 | 1010.9 |
| 20260906034640 | 77 | 0 | 6.1 | 12.2 | 0.05 | 0.39 | 0.39 | 66 | 1010.8 |
| 20260906034140 | 77 | 0 | 7.0 | 12.2 | 0.12 | 0.39 | 0.39 | 67 | 1010.9 |
| 20260906033638 | 76 | 0 | 4.3 | 11.3 | 0.21 | 0.39 | 0.39 | 68 | 1010.7 |
| 20260906033408 | 76 | 0 | 4.3 | 10.4 | 0.22 | 0.39 | 0.39 | 69 | 1010.8 |
| 20260906032634 | 76 | 0 | 6.1 | 13.9 | 0.23 | 0.39 | 0.39 | 69 | 1010.8 |
| 20260906032134 | 75 | 0 | 7.8 | 14.8 | 0.24 | 0.39 | 0.39 | 70 | 1010.9 |
| 20260906031902 | 75 | 0 | 8.7 | 22.6 | 0.29 | 0.39 | 0.39 | 70 | 1011.0 |
| 20260906031132 | 75 | 0 | 12.2 | 23.5 | 0.33 | 0.39 | 0.39 | 71 | 1011.0 |
| 20260906030903 | 74 | 0 | 12.2 | 23.5 | 0.35 | 0.39 | 0.39 | 71 | 1011.0 |
| 20260906030131 | 74 | 0 | 8.7 | 17.4 | 0.34 | 0.38 | 0.38 | 72 | 1010.9 |
| 20260906025628 | 74 | 0 | 9.6 | 18.2 | 0.34 | 0.37 | 0.37 | 72 | 1010.7 |
| 20260906025128 | 75 | 0 | 12.2 | 26.9 | 0.34 | 0.35 | 0.36 | 71 | 1010.5 |
| 20260906024628 | 75 | 0 | 13.9 | 26.9 | 0.34 | 0.34 | 0.34 | 70 | 1010.7 |
| 20260906024128 | 74 | 0 | 14.8 | 26.1 | 0.27 | 0.27 | 0.27 | 70 | 1010.5 |
| 20260906023628 | 74 | 0 | 13.9 | 26.1 | 0.18 | 0.18 | 0.18 | 67 | 1010.6 |
| 20260906023128 | 75 | 0 | 11.3 | 25.2 | 0.17 | 0.17 | 0.17 | 67 | 1010.4 |
| 20260906022628 | 75 | 0 | 13.9 | 27.8 | 0.16 | 0.16 | 0.16 | 65 | 1010.3 |
| 20260906022127 | 77 | 0 | 22.6 | 38.2 | 0.15 | 0.15 | 0.15 | 64 | 1010.3 |
| 20260906021628 | 78 | 0 | 23.5 | 40.0 | 0.10 | 0.10 | 0.12 | 62 | 1009.6 |
| 20260906021128 | 79 | 0 | 17.4 | 40.0 | 0.06 | 0.06 | 0.06 | 61 | 1009.0 |
| 20260906020859 | 80 | 0 | 15.6 | 26.9 | 0.04 | 0.04 | 0.04 | 60 | 1009.0 |
| 20260906020127 | 80 | 0 | 14.8 | 26.9 | 0.04 | 0.04 | 0.04 | 58 | 1009.3 |
| 20260906015854 | 82 | 0 | 13.9 | 20.9 | 0.03 | 0.03 | 0.04 | 55 | 1009.1 |
| 20260906015124 | 85 | 0 | 14.8 | 26.1 | 0.01 | 0.01 | 0.02 | 49 | 1008.9 |
| 20260906014625 | 87 | 0 | 14.8 | 26.9 | 0.00 | 0.00 | 0.00 | 39 | 1008.7 |
| 20260906014123 | 88 | 0 | 10.4 | 26.9 | 0.00 | 0.00 | 0.00 | 40 | 1008.4 |
| 20260906013621 | 89 | 105 | 7.0 | 16.5 | 0.00 | 0.00 | 0.00 | 39 | 1008.4 |
| 20260906013119 | 91 | 244 | 5.2 | 16.5 | 0.00 | 0.00 | 0.00 | 38 | 1008.4 |
| 20260906012619 | 91 | 222 | 2.6 | 7.0 | 0.00 | 0.00 | 0.00 | 35 | 1008.3 |
| 20260906012117 | 91 | 106 | 1.7 | 3.5 | 0.00 | 0.00 | 0.00 | 34 | 1008.2 |
| 20260906011845 | 92 | 105 | 2.6 | 5.2 | 0.00 | 0.00 | 0.00 | 34 | 1008.2 |
| 20260906011059 | 92 | 103 | 2.6 | 5.2 | 0.00 | 0.00 | 0.00 | 33 | 1008.1 |
| 20260906010553 | 92 | 105 | 2.6 | 6.1 | 0.00 | 0.00 | 0.00 | 33 | 1008.0 |
| 20260906010037 | 92 | 89 | 2.6 | 6.1 | 0.00 | 0.00 | 0.00 | 33 | 1007.9 |
| 20260906005533 | 92 | 51 | 2.6 | 6.1 | 0.00 | 0.00 | 0.00 | 33 | 1007.9 |
| 20260906005033 | 92 | 43 | 3.5 | 6.1 | 0.00 | 0.00 | 0.00 | 33 | 1007.9 |
| 20260906004533 | 92 | 4 | 2.6 | 6.1 | 0.00 | 0.00 | 0.00 | 33 | 1007.9 |
| 20260906004031 | 92 | 342 | 3.5 | 6.1 | 0.00 | 0.00 | 0.00 | 33 | 1007.7 |
| 20260906003530 | 92 | 336 | 3.5 | 6.1 | 0.00 | 0.00 | 0.00 | 33 | 1007.6 |
| 20260906003029 | 92 | 323 | 2.6 | 6.1 | 0.00 | 0.00 | 0.00 | 33 | 1007.7 |
| 20260906002518 | 92 | 162 | 3.5 | 6.1 | 0.00 | 0.00 | 0.00 | 33 | 1007.8 |
| 20260906001949 | 92 | 150 | 3.5 | 6.1 | 0.00 | 0.00 | 0.00 | 32 | 1007.8 |
| 20260906001714 | 93 | 202 | 3.5 | 7.8 | 0.00 | 0.00 | 0.00 | 32 | 1007.8 |
| 20260906000942 | 93 | 280 | 3.5 | 7.8 | 0.00 | 0.00 | 0.00 | 32 | 1007.7 |
| 20260906000711 | 94 | 213 | 4.3 | 11.3 | 0.00 | 0.00 | 0.00 | 31 | 1007.7 |
| 20260905235938 | 95 | 0 | 3.5 | 11.3 | 0.00 | 0.00 | 0.00 | 31 | 1007.6 |
| 20260905235436 | 96 | 66 | 2.6 | 8.7 | 0.00 | 0.00 | 0.00 | 29 | 1007.6 |
| 20260905234934 | 96 | 75 | 4.3 | 11.3 | 0.00 | 0.00 | 0.00 | 29 | 1007.3 |
| 20260905234705 | 96 | 72 | 6.1 | 11.3 | 0.00 | 0.00 | 0.00 | 29 | 1007.2 |
| 20260905233933 | 96 | 109 | 5.2 | 9.6 | 0.00 | 0.00 | 0.00 | 29 | 1007.0 |
| 20260905233434 | 96 | 98 | 5.2 | 9.6 | 0.00 | 0.00 | 0.00 | 28 | 1007.0 |
| 20260905233204 | 97 | 84 | 6.1 | 12.2 | 0.00 | 0.00 | 0.00 | 28 | 1006.9 |
| 20260905232431 | 97 | 92 | 6.1 | 12.2 | 0.00 | 0.00 | 0.00 | 28 | 1006.9 |
| 20260905231928 | 98 | 122 | 5.2 | 9.6 | 0.00 | 0.00 | 0.00 | 27 | 1006.8 |
| 20260905231658 | 98 | 147 | 4.3 | 12.2 | 0.00 | 0.00 | 0.00 | 27 | 1006.8 |
| 20260905230928 | 98 | 110 | 4.3 | 12.2 | 0.00 | 0.00 | 0.00 | 27 | 1006.8 |
| 20260905230428 | 98 | 153 | 4.3 | 10.4 | 0.00 | 0.00 | 0.00 | 27 | 1006.9 |
| 20260905225928 | 99 | 107 | 4.3 | 8.7 | 0.00 | 0.00 | 0.00 | 26 | 1006.9 |
| 20260905225428 | 99 | 184 | 6.1 | 12.2 | 0.00 | 0.00 | 0.00 | 25 | 1006.8 |
| 20260905224929 | 99 | 198 | 7.8 | 17.4 | 0.00 | 0.00 | 0.00 | 25 | 1006.8 |
| 20260905224658 | 100 | 183 | 7.0 | 17.4 | 0.00 | 0.00 | 0.00 | 25 | 1006.8 |
| 20260905223923 | 100 | 142 | 5.2 | 13.9 | 0.00 | 0.00 | 0.00 | 25 | 1006.7 |
| 20260905223422 | 100 | 154 | 4.3 | 8.7 | 0.00 | 0.00 | 0.00 | 25 | 1006.7 |
| 20260905222922 | 100 | 164 | 5.2 | 8.7 | 0.00 | 0.00 | 0.00 | 25 | 1006.8 |
| 20260905222423 | 100 | 181 | 5.2 | 10.4 | 0.00 | 0.00 | 0.00 | 25 | 1006.8 |
| 20260905222153 | 99 | 188 | 5.2 | 10.4 | 0.00 | 0.00 | 0.00 | 25 | 1006.8 |
| 20260905221421 | 99 | 181 | 4.3 | 7.8 | 0.00 | 0.00 | 0.00 | 27 | 1006.8 |
| 20260905220919 | 98 | 0 | 5.2 | 8.7 | 0.00 | 0.00 | 0.00 | 28 | 1006.9 |
| 20260905220408 | 98 | 167 | 7.0 | 12.2 | 0.00 | 0.00 | 0.00 | 28 | 1006.9 |
| 20260905215904 | 99 | 162 | 8.7 | 12.2 | 0.00 | 0.00 | 0.00 | 27 | 1006.9 |
| 20260905215402 | 99 | 180 | 8.7 | 17.4 | 0.00 | 0.00 | 0.00 | 26 | 1007.0 |
| 20260905214900 | 99 | 176 | 7.0 | 17.4 | 0.00 | 0.00 | 0.00 | 27 | 1007.0 |
| 20260905214357 | 99 | 143 | 6.1 | 17.4 | 0.00 | 0.00 | 0.00 | 26 | 1007.1 |
| 20260905213859 | 100 | 168 | 6.1 | 17.4 | 0.00 | 0.00 | 0.00 | 25 | 1007.1 |
| 20260905213358 | 100 | 167 | 6.1 | 12.2 | 0.00 | 0.00 | 0.00 | 26 | 1007.1 |